Wetbulb
68.06 69.26 72.55 71.77 71.65 71.78 71.78 71.89 71.93 71.79 71.83 71.31 71.42 71.41 71.38 70.64 71.41 70.55 70.28 70.41 70.68 70.81 71.83 71.87 71.62 72.03 72.20 72.02 71.70 71.38 71.12 71.05 71.33 71.42 72.23 72.66 72.56 72.03 72.01 72.42 72.67 72.01 72.75
68.74 69.77 72.39 71.91 71.69 71.57 71.55 71.45 71.75 72.09 72.03 71.55 71.47 71.06 71.07 70.66 71.16 70.40 70.40 70.49 70.23 70.50 70.93 71.16 70.63 71.81 72.19 71.87 71.33 70.76 70.46 70.54 71.14 70.51 70.60 70.63 71.38 72.30 71.77 72.26 72.79 71.76 72.37
68.50 69.35 70.37 72.08 71.58 71.30 71.13 71.03 71.43 71.70 71.85 71.44 70.99 71.29 70.67 70.87 70.85 70.31 70.12 70.01 69.90 69.56 69.67 70.37 70.07 70.73 71.49 71.36 70.90 70.19 69.63 69.58 70.52 70.06 70.13 68.66 69.38 71.83 71.12 72.22 72.52 72.72 72.10
67.77 69.60 69.54 72.01 71.41 71.30 71.01 70.90 71.12 71.19 70.92 71.04 70.93 70.93 70.71 70.75 71.24 70.32 69.84 69.60 69.46 69.37 69.22 69.25 69.35 69.00 69.33 69.70 69.83 69.54 69.12 69.10 69.68 68.50 67.20 69.02 68.91 71.38 70.88 71.08 70.96 71.30 71.24
66.53 69.34 70.30 71.81 71.21 71.12 71.06 70.96 70.64 70.65 70.63 70.78 71.35 71.02 70.66 70.95 70.07 69.57 69.56 69.26 69.02 68.82 68.53 68.39 68.38 68.31 68.16 68.11 67.97 68.62 68.72 68.75 68.32 66.52 65.10 67.40 68.32 70.02 70.38 70.80 70.47 70.44 70.84
67.06 69.23 70.84 71.50 71.06 70.95 70.95 70.79 70.62 70.42 70.09 70.28 70.95 71.12 70.55 70.07 69.18 68.81 68.95 68.76 68.63 68.47 67.89 67.70 67.76 67.79 67.72 67.54 67.25 67.23 67.30 67.60 67.04 62.41 63.95 68.32 67.56 70.77 70.51 70.31 70.64 70.38 70.24
66.92 68.25 69.43 71.00 70.86 70.57 70.46 70.65 70.50 70.18 69.98 69.73 70.08 70.07 69.77 69.84 69.16 68.49 68.43 68.02 67.97 67.76 67.68 67.83 67.84 67.75 67.64 67.45 67.01 66.43 66.46 66.53 63.31 62.19 64.37 66.86 67.52 70.42 70.56 70.13 70.00 69.79 69.52
66.64 68.45 68.30 69.76 70.11 70.08 69.94 69.75 69.80 69.84 69.70 69.86 70.36 70.15 69.76 69.82 69.49 68.79 68.03 67.82 68.09 68.27 68.55 68.59 68.48 68.39 68.41 68.11 67.73 67.14 66.56 65.22 62.88 62.44 64.06 64.96 69.38 69.67 69.74 70.09 69.76 69.42 69.18
65.76 66.86 67.64 67.59 69.05 69.44 69.63 69.75 69.83 69.75 69.83 69.62 69.73 70.01 69.96 69.92 69.78 68.41 68.31 68.14 68.45 68.63 68.77 68.66 68.42 68.23 68.12 67.75 67.36 67.13 66.53 65.60 61.80 62.68 64.92 65.32 68.74 68.52 69.16 69.02 68.98 69.62 69.31
64.37 64.59 65.48 66.42 66.94 66.24 66.01 68.16 68.26 68.46 68.47 68.12 67.95 67.98 67.60 67.91 68.47 68.72 68.40 68.82 68.57 68.39 67.77 67.10 66.58 66.33 66.64 66.62 66.56 66.39 65.65 65.31 62.53 62.55 64.45 66.14 68.87 67.96 67.51 67.27 68.48 68.65 68.48
62.77 62.84 64.26 64.55 64.88 65.60 65.26 65.44 66.33 66.74 66.60 66.32 65.55 65.41 65.47 66.35 66.54 66.10 66.03 66.76 67.24 66.79 66.32 65.48 65.14 65.78 66.42 66.21 66.25 65.51 64.76 63.85 64.23 63.31 64.95 67.86 68.18 68.21 68.04 67.60 66.90 66.48 67.44
60.43 61.71 63.50 63.84 63.83 64.49 65.71 63.46 64.07 64.67 63.90 64.43 64.86 63.70 65.41 65.12 64.51 65.39 63.90 64.82 65.66 65.59 65.70 65.35 65.42 66.13 65.74 65.20 64.09 64.83 63.03 64.24 64.50 64.81 64.17 66.89 67.65 67.86 67.73 67.34 66.93 66.96 66.86
60.79 61.35 62.23 63.19 63.16 62.93 61.84 63.35 63.66 63.54 63.60 63.89 64.05 64.69 64.41 63.99 62.31 63.22 63.53 63.62 63.68 63.31 64.33 64.79 63.90 63.11 62.69 62.73 63.48 63.46 62.77 62.71 64.81 64.38 63.97 65.19 65.79 66.58 66.88 67.07 66.73 66.43 66.63
60.76 61.39 61.85 62.90 62.84 62.31 61.85 61.98 62.22 62.04 62.58 62.56 63.18 64.02 62.89 62.46 62.47 63.04 63.21 63.44 63.30 63.39 62.29 62.72 61.06 61.18 61.51 62.22 61.66 61.11 60.06 59.25 58.76 61.50 62.59 63.26 63.32 63.82 64.65 65.27 66.00 66.46 66.59
60.40 61.36 61.33 62.13 62.49 62.65 61.57 61.59 60.89 60.54 61.29 61.86 62.65 63.41 63.31 62.27 62.28 62.69 62.36 62.19 62.24 61.69 60.31 59.37 59.15 58.46 57.97 59.15 60.19 59.61 58.81 57.84 57.30 57.24 58.70 60.22 60.73 59.04 60.12 61.73 63.16 64.51 64.90
60.74 61.29 61.51 62.13 62.32 62.34 61.53 61.16 60.58 60.55 60.83 60.50 60.82 61.80 62.57 61.46 60.95 60.95 59.77 59.04 58.52 57.99 57.82 57.27 56.82 56.44 56.51 57.85 58.26 58.85 58.04 57.94 57.98 58.06 57.50 55.91 59.83 59.63 58.69 60.12 61.57 62.90 63.44
59.82 61.27 60.99 61.71 62.19 61.50 61.55 61.53 61.09 61.02 60.92 59.42 58.92 59.34 59.36 59.61 58.59 58.19 57.79 57.25 57.18 57.34 57.22 56.66 56.59 56.50 56.14 56.84 55.99 57.05 56.95 56.83 56.79 56.86 55.99 54.72 55.63 58.75 59.37 60.34 60.95 61.59 62.51
59.09 59.62 60.66 63.01 61.74 61.47 61.48 61.35 61.33 61.19 60.03 58.44 57.58 57.92 58.25 58.19 57.49 56.22 56.32 55.87 55.87 55.51 54.26 53.51 52.56 52.00 52.08 53.22 53.34 53.55 53.62 54.31 54.37 54.24 54.11 53.85 54.37 54.78 58.22 59.84 60.18 61.34 62.27
57.82 58.45 59.02 61.04 61.26 61.34 61.38 61.07 60.52 60.54 59.62 57.40 56.07 55.58 55.51 55.34 55.17 53.52 52.97 53.24 53.74 52.45 51.50 51.06 49.37 49.52 48.29 48.70 49.67 49.14 49.96 50.96 51.54 53.64 52.42 53.27 53.76 54.05 54.10 59.17 60.37 60.38 60.66
57.00 56.86 57.93 60.66 61.27 61.32 61.03 60.32 59.53 59.08 58.05 55.95 54.49 54.24 54.25 53.77 53.65 51.94 51.95 51.76 51.52 51.01 50.16 49.75 48.62 48.98 48.29 47.77 50.55 49.65 48.23 49.49 50.57 50.40 51.48 53.61 52.71 53.18 53.43 54.52 55.24 57.67 59.55
55.68 55.29 55.83 59.42 60.63 61.20 59.37 57.91 57.08 55.90 55.91 54.38 54.33 54.43 53.84 53.24 53.08 51.46 51.08 51.06 50.67 49.25 48.59 48.64 48.11 47.80 47.52 48.18 46.74 46.71 47.47 48.42 49.12 49.83 51.32 51.00 51.82 52.68 52.81 52.80 52.94 53.14 56.44
54.35 53.81 54.27 57.79 60.74 60.90 59.49 58.04 56.93 55.93 55.32 54.48 54.35 53.36 53.46 52.73 52.43 51.78 50.41 49.86 49.86 48.82 48.37 48.07 47.83 47.17 47.24 47.62 45.22 44.71 42.45 45.28 48.60 50.08 50.05 50.91 49.58 50.49 51.15 51.71 51.59 53.86 54.16
49.73 49.75 51.74 55.48 59.77 60.65 59.27 57.71 55.98 55.59 54.20 53.12 52.46 51.82 52.09 52.26 52.07 51.29 50.23 49.49 49.02 48.69 47.72 47.73 47.75 47.34 45.57 46.95 46.99 45.00 41.84 40.69 44.59 49.06 49.21 48.78 48.28 47.95 48.54 49.92 50.99 53.52 52.85
48.40 49.38 50.99 54.61 58.57 59.67 58.43 56.49 53.35 52.23 50.29 51.54 51.68 51.84 51.48 51.66 50.96 50.92 50.32 49.23 48.78 48.71 47.44 47.74 49.11 47.42 46.78 45.03 46.79 48.82 46.37 45.45 41.74 40.91 47.30 47.32 47.65 47.90 47.19 47.72 48.42 51.37 51.34
49.98 49.77 51.62 53.95 57.48 58.49 57.69 55.49 52.70 51.53 51.79 51.73 51.76 51.19 50.74 50.31 50.57 50.39 49.86 48.89 48.31 48.65 48.04 47.98 47.04 47.02 47.03 46.14 45.76 45.33 45.93 45.84 45.50 43.18 40.79 43.15 45.92 46.55 47.09 47.48 47.32 48.05 52.30
50.62 52.48 52.90 53.55 55.92 57.60 57.17 54.97 53.55 52.30 52.21 50.83 50.16 49.68 49.25 49.23 49.41 49.51 49.82 48.55 48.39 47.91 47.61 47.84 47.52 47.32 47.23 46.94 46.79 46.34 45.60 44.46 44.31 43.48 42.05 42.41 42.25 46.02 46.20 47.65 49.66 48.69 51.39
MSLP
1015.10 1015.50 1015.77 1016.02 1016.25 1016.39 1016.52 1016.60 1016.68 1016.81 1016.94 1017.12 1017.21 1017.34 1017.34 1017.43 1017.42 1017.41 1017.47 1017.55 1017.58 1017.39 1017.24 1017.28 1017.37 1017.25 1017.15 1017.26 1017.23 1017.17 1017.05 1016.90 1016.84 1016.83 1016.78 1016.82 1016.80 1016.84 1016.93 1016.95 1017.00 1017.12 1017.21
1014.65 1015.39 1015.90 1016.12 1016.35 1016.51 1016.65 1016.79 1016.91 1017.01 1017.12 1017.26 1017.36 1017.46 1017.53 1017.61 1017.64 1017.75 1017.80 1017.81 1017.83 1017.82 1017.81 1017.75 1017.77 1017.66 1017.58 1017.69 1017.72 1017.66 1017.51 1017.35 1017.28 1017.27 1017.10 1017.03 1017.05 1017.11 1017.27 1017.28 1017.26 1017.37 1017.50
1014.84 1015.40 1015.93 1016.25 1016.51 1016.69 1016.84 1016.98 1017.11 1017.19 1017.23 1017.32 1017.45 1017.53 1017.68 1017.82 1017.91 1018.03 1018.09 1018.17 1018.15 1018.13 1018.18 1018.20 1018.19 1018.15 1018.05 1018.10 1018.13 1018.06 1017.88 1017.57 1017.40 1017.21 1017.28 1017.30 1017.35 1017.42 1017.54 1017.63 1017.56 1017.64 1017.63
1014.39 1015.07 1015.93 1016.37 1016.62 1016.77 1016.93 1017.08 1017.21 1017.33 1017.40 1017.51 1017.61 1017.71 1017.81 1017.98 1018.13 1018.29 1018.43 1018.46 1018.45 1018.50 1018.53 1018.50 1018.49 1018.40 1018.47 1018.55 1018.51 1018.40 1018.20 1017.96 1017.75 1017.50 1017.14 1017.46 1017.58 1017.80 1017.85 1017.84 1017.82 1017.85 1017.85
1014.77 1015.53 1016.19 1016.49 1016.71 1016.87 1017.06 1017.22 1017.42 1017.52 1017.62 1017.69 1017.79 1017.93 1018.06 1018.16 1018.35 1018.54 1018.67 1018.73 1018.80 1018.85 1018.83 1018.77 1018.72 1018.74 1018.84 1018.77 1018.73 1018.64 1018.40 1018.19 1017.88 1017.65 1017.64 1017.82 1017.94 1018.13 1018.12 1018.08 1018.10 1018.13 1018.22
1015.13 1015.75 1016.31 1016.63 1016.85 1017.08 1017.20 1017.32 1017.48 1017.64 1017.74 1017.80 1017.94 1018.07 1018.21 1018.31 1018.47 1018.72 1018.93 1018.99 1019.06 1019.09 1019.10 1019.11 1019.13 1019.09 1019.06 1018.99 1018.93 1018.83 1018.72 1018.42 1018.23 1018.03 1017.97 1018.23 1018.51 1018.44 1018.41 1018.34 1018.39 1018.36 1018.43
1015.51 1016.00 1016.52 1016.81 1016.99 1017.22 1017.42 1017.51 1017.59 1017.67 1017.82 1017.93 1018.09 1018.25 1018.28 1018.44 1018.66 1018.92 1019.11 1019.16 1019.26 1019.22 1019.29 1019.31 1019.30 1019.28 1019.25 1019.25 1019.21 1019.12 1018.96 1018.71 1018.52 1018.26 1018.55 1018.62 1018.86 1018.66 1018.62 1018.60 1018.54 1018.59 1018.72
1015.58 1016.04 1016.56 1016.97 1017.17 1017.35 1017.54 1017.71 1017.79 1017.83 1017.93 1018.04 1018.15 1018.27 1018.36 1018.50 1018.70 1018.96 1019.17 1019.29 1019.36 1019.44 1019.47 1019.50 1019.50 1019.55 1019.53 1019.45 1019.37 1019.32 1019.25 1018.94 1018.77 1018.57 1018.97 1019.07 1019.02 1018.99 1019.04 1018.96 1018.84 1018.72 1018.76
1015.53 1015.98 1016.51 1017.01 1017.30 1017.50 1017.67 1017.76 1017.81 1017.91 1018.08 1018.28 1018.39 1018.51 1018.62 1018.72 1018.84 1019.09 1019.24 1019.36 1019.45 1019.61 1019.64 1019.73 1019.77 1019.69 1019.63 1019.64 1019.61 1019.48 1019.35 1019.10 1019.13 1018.81 1019.06 1019.21 1019.25 1019.28 1019.28 1019.15 1019.17 1019.13 1019.09
1015.85 1015.87 1016.25 1016.86 1017.13 1017.48 1017.81 1018.06 1018.11 1018.15 1018.32 1018.52 1018.64 1018.79 1018.88 1018.95 1019.02 1019.23 1019.37 1019.47 1019.65 1019.79 1019.93 1020.00 1019.95 1019.87 1019.78 1019.68 1019.66 1019.52 1019.31 1019.24 1019.14 1018.83 1019.27 1019.39 1019.45 1019.55 1019.46 1019.37 1019.34 1019.32 1019.30
1015.86 1016.00 1016.09 1016.44 1016.70 1017.08 1017.53 1018.02 1018.21 1018.32 1018.45 1018.61 1018.81 1018.80 1018.95 1018.92 1019.15 1019.53 1019.65 1019.70 1019.83 1019.89 1019.92 1019.93 1019.89 1019.80 1019.76 1019.84 1019.70 1019.40 1019.36 1019.13 1018.79 1019.06 1019.53 1019.67 1019.68 1019.61 1019.59 1019.56 1019.49 1019.49 1019.46
1015.76 1015.94 1016.21 1016.29 1016.50 1016.73 1016.96 1017.78 1018.00 1018.21 1018.39 1018.53 1018.56 1018.68 1018.71 1018.77 1019.20 1019.43 1019.75 1019.83 1019.84 1019.84 1019.89 1019.81 1019.77 1019.71 1019.59 1019.56 1019.64 1019.45 1019.41 1019.12 1019.22 1019.53 1019.86 1019.82 1019.87 1019.66 1019.63 1019.64 1019.60 1019.54 1019.57
1015.35 1015.60 1015.92 1016.23 1016.32 1016.65 1016.88 1017.35 1017.64 1017.85 1018.08 1018.22 1018.35 1018.59 1018.74 1019.02 1019.24 1019.48 1019.58 1019.69 1019.76 1019.76 1019.81 1019.73 1019.73 1019.67 1019.64 1019.60 1019.50 1019.43 1019.51 1019.45 1019.44 1019.69 1019.97 1019.99 1020.09 1020.02 1019.86 1019.77 1019.71 1019.55 1019.52
1014.89 1015.13 1015.49 1015.83 1016.22 1016.51 1016.74 1017.09 1017.34 1017.61 1017.89 1018.22 1018.38 1018.56 1018.78 1018.96 1019.06 1018.99 1019.26 1019.33 1019.49 1019.49 1019.58 1019.55 1019.66 1019.59 1019.60 1019.58 1019.57 1019.71 1019.76 1019.78 1019.78 1019.93 1020.10 1020.14 1020.18 1020.24 1020.10 1019.97 1019.88 1019.73 1019.60
1014.62 1015.00 1015.33 1015.76 1016.20 1016.45 1016.77 1017.13 1017.23 1017.50 1017.73 1017.99 1018.30 1018.62 1018.82 1018.85 1018.98 1019.19 1019.31 1019.48 1019.52 1019.70 1019.86 1019.95 1019.92 1019.86 1019.87 1019.80 1019.73 1019.69 1019.81 1019.85 1019.89 1020.00 1020.28 1020.27 1020.20 1020.33 1020.25 1020.13 1019.99 1019.80 1019.69
1014.33 1014.88 1015.25 1015.73 1016.03 1016.45 1016.77 1017.01 1017.19 1017.43 1017.69 1017.97 1018.34 1018.64 1018.74 1018.89 1019.11 1019.34 1019.60 1019.76 1019.93 1020.01 1020.05 1020.10 1020.13 1020.19 1020.18 1020.04 1020.11 1020.00 1020.09 1020.16 1020.16 1020.14 1020.19 1020.35 1020.26 1020.28 1020.22 1020.22 1020.12 1020.00 1019.84
1013.84 1014.46 1015.13 1015.69 1015.99 1016.55 1016.96 1017.03 1017.24 1017.40 1017.65 1018.08 1018.43 1018.63 1018.84 1018.98 1019.18 1019.46 1019.73 1019.96 1020.11 1020.11 1020.14 1020.24 1020.20 1020.17 1020.24 1020.12 1020.24 1020.09 1020.09 1020.14 1020.19 1020.17 1020.12 1020.10 1020.29 1020.35 1020.37 1020.31 1020.20 1020.17 1019.99
1013.17 1013.87 1014.50 1015.16 1015.77 1016.24 1016.66 1016.79 1017.06 1017.33 1017.65 1018.06 1018.34 1018.65 1018.86 1018.99 1019.10 1019.41 1019.75 1020.00 1020.07 1020.22 1020.26 1020.38 1020.47 1020.56 1020.53 1020.39 1020.34 1020.24 1020.07 1019.98 1020.03 1020.03 1020.02 1020.15 1020.23 1020.37 1020.41 1020.35 1020.29 1020.21 1019.99
1012.39 1013.06 1013.81 1014.44 1015.19 1015.83 1016.19 1016.52 1016.85 1017.15 1017.53 1017.84 1018.14 1018.54 1018.83 1019.12 1019.32 1019.64 1019.87 1020.15 1020.23 1020.39 1020.45 1020.61 1020.74 1020.80 1020.92 1020.84 1020.60 1020.43 1020.37 1020.38 1020.30 1020.23 1020.29 1020.32 1020.24 1020.40 1020.49 1020.37 1020.27 1020.19 1020.08
1011.91 1012.42 1013.17 1014.01 1014.75 1015.45 1016.08 1016.50 1016.92 1017.39 1017.72 1018.07 1018.44 1018.78 1019.04 1019.24 1019.30 1019.56 1019.83 1020.12 1020.29 1020.50 1020.61 1020.64 1020.87 1020.92 1021.04 1021.12 1021.00 1020.81 1020.57 1020.41 1020.17 1020.36 1020.42 1020.27 1020.40 1020.46 1020.52 1020.37 1020.37 1020.27 1020.14
1011.90 1012.45 1013.02 1013.80 1014.53 1015.34 1016.04 1016.68 1017.18 1017.64 1017.83 1018.17 1018.25 1018.37 1018.69 1019.01 1019.24 1019.53 1019.77 1019.91 1020.05 1020.35 1020.49 1020.60 1020.87 1021.05 1021.23 1021.20 1021.37 1021.00 1020.49 1020.12 1020.16 1020.32 1020.23 1020.44 1020.58 1020.60 1020.70 1020.71 1020.54 1020.20 1020.25
1011.75 1012.43 1013.00 1013.53 1014.27 1015.01 1015.75 1016.36 1016.91 1017.33 1017.69 1017.94 1018.13 1018.32 1018.56 1018.88 1019.17 1019.44 1019.67 1019.95 1020.02 1020.26 1020.35 1020.58 1020.87 1021.17 1021.04 1020.96 1021.49 1021.66 1021.28 1020.62 1020.40 1020.28 1020.41 1020.56 1020.68 1020.66 1020.76 1020.63 1020.66 1020.39 1020.45
1011.66 1012.30 1012.96 1013.33 1013.82 1014.49 1015.29 1016.09 1016.66 1017.14 1017.52 1017.89 1018.09 1018.39 1018.44 1018.50 1018.77 1019.06 1019.27 1019.61 1019.90 1020.19 1020.48 1020.59 1020.73 1020.98 1021.40 1021.30 1021.20 1021.49 1021.56 1021.60 1021.25 1020.87 1020.75 1020.78 1020.89 1021.04 1020.88 1020.89 1020.74 1020.51 1020.59
1011.81 1012.34 1012.85 1013.27 1013.67 1014.27 1014.97 1015.76 1016.41 1016.69 1017.24 1017.39 1017.74 1018.08 1018.32 1018.38 1018.74 1019.08 1019.35 1019.58 1019.81 1020.10 1020.35 1020.35 1020.53 1020.88 1021.20 1021.49 1021.32 1021.11 1021.18 1021.43 1021.65 1021.59 1021.11 1020.94 1020.93 1020.99 1020.92 1020.90 1020.86 1020.79 1020.82
1011.93 1012.65 1013.21 1013.56 1013.92 1014.39 1015.01 1015.66 1016.48 1016.99 1017.20 1017.21 1017.59 1018.03 1018.37 1018.52 1018.67 1018.93 1019.30 1019.60 1019.79 1019.93 1020.15 1020.32 1020.53 1020.86 1021.00 1021.25 1021.38 1021.29 1021.16 1021.20 1021.30 1021.65 1021.57 1021.23 1021.05 1020.79 1020.81 1020.68 1020.91 1020.99 1020.79
1012.51 1012.94 1013.42 1013.76 1014.07 1014.47 1015.04 1015.59 1016.20 1016.72 1016.88 1017.04 1017.41 1017.89 1018.09 1018.33 1018.72 1018.92 1019.15 1019.41 1019.59 1019.86 1020.19 1020.37 1020.62 1020.80 1021.04 1021.23 1021.30 1021.49 1021.59 1021.59 1021.44 1021.65 1021.76 1021.41 1021.14 1020.76 1020.75 1020.65 1020.66 1021.10 1020.90
Wind_Speed
10 8 9 9 9 7 7 7 7 7 8 8 8 9 10 10 12 13 12 13 13 13 14 17 16 14 14 15 15 14 12 11 10 10 9 11 10 10 11 10 11 8 11
14 11 9 9 9 8 8 8 7 7 7 7 8 9 10 9 11 12 12 13 14 14 14 15 16 15 15 15 15 14 13 12 10 7 7 9 10 10 11 11 11 9 11
14 12 10 10 9 9 8 7 8 7 7 7 7 9 9 9 10 11 12 12 13 13 13 14 14 15 16 15 13 13 12 12 12 11 5 2 6 10 10 9 9 9 11
7 12 11 10 9 10 9 8 8 8 8 7 7 8 9 9 11 11 11 11 11 12 12 12 12 13 13 13 13 13 13 14 14 16 8 8 9 11 9 8 8 8 8
7 12 10 10 9 9 9 9 8 8 7 7 7 8 8 9 10 10 10 10 10 10 10 10 11 11 11 13 13 12 13 13 15 7 7 9 7 10 9 9 8 9 8
9 11 10 9 9 9 9 9 8 8 7 7 7 7 8 7 9 9 9 8 9 9 9 9 10 11 12 12 12 12 12 13 11 7 7 12 7 11 10 10 9 9 8
11 10 8 10 10 9 8 8 8 8 7 7 7 6 7 7 8 8 8 8 8 8 9 9 9 10 10 10 10 10 10 11 7 6 7 8 6 12 11 10 9 9 8
9 10 8 9 8 9 8 7 6 7 7 7 6 7 7 7 8 8 7 7 7 8 8 8 8 8 8 8 9 9 9 9 7 6 7 6 9 11 11 12 10 7 6
6 8 8 8 8 9 8 7 6 6 7 7 8 8 8 7 8 8 7 6 7 7 7 7 7 7 6 6 7 7 8 10 6 2 7 5 9 10 10 10 10 9 8
5 4 8 8 7 7 5 6 6 6 7 7 7 7 8 8 8 8 8 7 8 8 7 6 5 4 3 2 4 6 7 10 6 1 5 4 7 8 9 9 8 7 7
6 6 6 7 6 8 8 6 6 6 7 7 6 5 6 3 5 7 7 8 7 6 5 2 1 4 5 5 5 7 7 4 3 6 4 10 8 7 7 7 8 8 7
8 7 6 6 6 6 7 7 6 6 5 5 5 5 3 4 5 7 6 6 6 4 4 3 3 5 7 2 3 6 2 5 4 5 3 10 8 6 7 7 7 7 6
9 7 8 7 7 6 3 5 3 3 3 3 3 3 3 4 3 3 3 3 3 4 3 3 4 1 4 3 3 3 3 4 2 3 4 7 6 7 7 8 8 7 8
8 9 9 8 6 6 4 3 4 3 3 3 3 4 2 2 2 2 3 2 2 1 2 0 2 0 1 3 1 1 3 4 3 3 4 5 5 6 7 8 9 9 8
8 7 8 8 7 5 5 4 3 3 3 4 4 3 2 2 2 2 1 1 1 3 2 3 3 4 5 5 5 3 3 1 2 1 2 4 4 2 5 8 9 9 9
9 8 7 7 7 6 4 4 2 3 4 4 3 4 4 2 2 1 3 2 3 3 3 3 2 2 3 2 5 4 5 5 5 4 2 2 2 1 3 6 9 10 11
8 9 8 8 7 7 5 4 2 1 4 3 3 4 3 2 3 3 2 2 2 2 2 3 3 3 2 2 1 3 2 3 2 4 2 1 1 2 3 5 6 8 10
9 10 10 10 9 8 7 6 4 4 3 3 4 4 4 2 2 2 3 2 3 1 1 2 2 3 4 3 2 3 2 2 3 3 2 2 3 3 2 2 4 6 8
9 10 11 11 10 9 8 5 5 6 4 4 4 5 5 3 2 2 2 3 2 0 1 1 2 2 2 4 3 3 3 2 3 3 4 2 3 3 3 2 1 1 4
9 10 10 10 10 9 5 5 3 4 2 3 3 4 5 4 3 1 2 3 2 2 1 1 1 1 1 2 3 4 4 3 2 2 2 3 3 4 3 4 1 3 4
7 8 9 10 9 8 3 4 4 4 3 2 4 6 7 6 5 2 3 4 2 1 2 2 1 1 2 1 2 4 4 5 3 1 1 1 2 4 5 5 4 3 2
8 7 8 9 11 8 5 4 4 4 3 4 3 5 5 6 5 4 3 3 4 2 2 1 1 1 1 2 1 1 3 4 2 3 2 2 3 3 3 2 5 4 4
8 7 6 8 10 10 8 5 3 3 3 3 3 3 4 6 7 4 4 4 3 2 2 3 2 2 1 2 2 3 2 1 3 2 1 2 2 1 2 1 1 3 4
7 8 7 6 8 8 9 6 6 5 5 4 4 3 4 6 6 5 4 3 3 2 2 3 3 2 2 2 2 3 2 3 1 4 2 1 2 3 2 2 2 2 3
7 6 5 4 5 7 7 7 4 3 3 3 4 7 5 5 6 6 5 4 4 3 3 3 2 1 1 2 2 1 2 3 3 4 3 2 2 3 2 2 2 3 4
5 6 4 4 4 6 7 8 8 8 7 5 5 5 5 4 4 6 6 5 5 4 3 3 2 2 2 2 1 2 1 2 1 2 3 4 4 3 2 1 2 2 3
Wind_Direction
113 111 112 109 103 103 102 95 98 97 90 84 82 82 80 70 78 70 66 62 54 57 50 57 49 51 62 61 57 54 50 50 63 70 76 76 65 60 53 36 90 74 75
112 113 112 108 103 97 97 99 100 103 96 89 89 84 81 79 79 75 69 64 62 54 49 54 51 45 56 56 50 44 35 22 15 46 89 88 74 61 58 57 71 74 81
120 127 112 108 103 99 95 98 99 98 94 89 99 98 86 84 84 79 72 67 67 67 63 58 57 50 50 49 45 39 26 10 355 347 307 126 72 64 63 58 74 80 80
130 119 110 108 107 105 101 96 97 96 94 91 92 101 98 96 87 82 78 74 72 69 66 64 60 60 57 50 41 32 17 4 350 344 35 44 71 54 53 58 71 71 76
90 99 103 104 104 103 101 101 102 103 100 94 94 99 107 101 94 91 87 85 78 74 70 68 66 59 54 49 40 28 11 359 344 8 61 51 49 38 45 43 60 62 55
107 104 98 104 108 106 108 111 110 111 111 109 105 105 101 112 106 101 97 92 84 77 71 64 59 55 49 45 40 32 11 354 355 25 53 54 38 40 44 50 56 61 64
109 112 106 114 113 110 107 111 113 113 115 116 114 111 112 129 113 105 103 97 87 82 73 65 58 56 52 45 37 27 12 350 352 28 63 64 29 45 51 54 62 67 62
102 117 118 110 110 109 107 110 118 120 121 118 115 123 113 126 125 114 109 101 93 83 74 65 60 53 48 43 31 17 355 341 3 47 77 64 26 46 44 45 49 59 65
114 126 134 131 115 101 99 105 114 120 115 113 106 108 99 105 125 119 111 105 94 85 80 63 51 45 36 28 17 360 338 326 342 31 86 57 24 44 46 48 43 43 43
150 149 140 136 155 143 123 97 104 105 104 103 106 117 123 117 112 117 106 92 93 91 81 65 46 21 335 347 338 317 312 313 288 109 72 62 35 44 47 49 44 39 40
161 166 136 154 164 146 136 137 132 129 133 130 132 151 162 175 152 98 100 106 105 105 107 97 306 268 264 254 265 278 317 288 359 74 66 51 35 28 34 38 37 31 23
171 173 161 176 158 161 146 157 176 163 179 184 177 187 211 99 85 117 135 141 144 157 182 187 251 287 291 180 248 275 326 1 29 80 68 61 36 35 38 31 27 17 2
178 172 169 172 167 166 180 170 168 171 177 155 159 125 146 122 154 166 155 172 180 201 212 209 244 85 9 7 9 4 2 346 55 83 88 71 38 18 18 14 8 6 3
189 176 169 165 167 189 169 165 179 164 155 159 149 137 170 186 162 150 125 146 154 56 329 309 336 315 250 239 84 35 38 11 11 45 93 102 63 15 1 355 351 351 351
181 177 165 164 166 188 156 188 185 151 144 175 132 152 317 222 134 81 100 42 80 44 12 0 356 12 2 360 346 24 9 7 22 47 130 134 101 41 0 346 341 337 331
170 172 165 169 161 172 168 177 167 150 178 113 128 159 197 79 135 89 101 84 55 47 18 9 8 2 329 29 350 11 5 353 351 359 360 153 161 312 6 350 343 338 330
170 165 169 161 169 162 177 160 160 165 114 114 108 75 86 85 95 110 105 98 91 68 326 340 343 357 321 336 281 257 237 255 292 302 332 31 307 254 4 7 8 347 337
167 165 167 169 171 167 174 165 172 144 133 151 138 144 141 127 119 127 132 131 97 3 54 358 17 0 339 348 334 323 343 359 330 311 32 356 46 32 336 31 8 14 7
179 167 168 167 166 173 177 163 172 155 171 161 147 145 159 139 143 134 139 120 125 84 59 43 346 120 347 340 319 308 318 334 333 357 346 35 55 50 337 221 178 68 27
183 171 162 162 162 164 166 154 156 134 153 139 147 145 143 152 158 140 129 128 149 166 220 163 210 354 137 295 329 318 294 268 231 302 325 23 57 43 0 354 309 237 46
184 169 165 159 159 157 152 154 152 161 167 161 169 163 165 162 174 182 165 154 173 174 169 99 46 71 320 259 356 310 280 239 200 219 111 25 33 50 32 12 350 358 25
178 174 168 161 163 163 151 159 152 164 179 165 168 158 163 159 159 188 180 182 176 155 141 175 159 327 240 148 161 305 322 343 336 191 103 79 70 54 352 41 351 353 340
167 171 179 174 166 165 157 153 165 138 127 147 172 169 187 173 166 185 174 169 164 146 203 187 174 178 229 316 166 150 355 298 327 346 193 90 46 331 293 241 347 345 10
164 165 185 194 167 159 153 162 168 173 164 190 164 167 184 181 168 172 172 165 169 168 213 183 188 185 128 232 326 218 198 158 240 333 337 224 183 258 270 343 17 7 37
141 154 173 194 167 152 163 149 153 169 192 166 164 173 167 175 166 166 168 185 181 180 204 198 145 185 197 189 214 311 243 237 219 194 273 302 286 221 212 145 42 327 86
96 109 142 176 179 154 159 160 177 196 211 163 158 160 163 165 173 178 189 185 190 190 187 175 187 198 238 263 261 286 250 245 263 250 257 273 225 189 168 82 68 314 54